Time,TemperatureF,DewpointF,PressureIn,WindDirection,WindDirectionDegrees,WindSpeedMPH,WindSpeedGustMPH,Humidity,HourlyPrecipIn,Conditions,Clouds,dailyrainin,SolarRadiationWatts/m^2,SoftwareType,DateUTC
2013-03-12 00:01:00,48.9,43.3,30.16,NNE,26,0.0,0.0,81,0.00,,,0.00,0,WeatherCatV1.14B232,2013-03-12 07:01:00,
2013-03-12 00:06:00,48.7,43.1,30.16,NNE,26,0.0,0.0,81,0.00,,,0.00,0,WeatherCatV1.14B232,2013-03-12 07:06:00,
2013-03-12 00:11:00,48.6,43.0,30.16,NNE,26,0.0,0.0,81,0.00,,,0.00,0,WeatherCatV1.14B232,2013-03-12 07:11:00,
2013-03-12 00:16:00,48.5,42.9,30.16,NNE,26,0.0,0.0,81,0.00,,,0.00,0,WeatherCatV1.14B232,2013-03-12 07:16:00,
2013-03-12 00:21:00,48.3,42.7,30.16,NNE,26,0.0,0.0,81,0.00,,,0.00,0,WeatherCatV1.14B232,2013-03-12 07:21:00,
2013-03-12 00:26:00,48.2,42.6,30.16,NNE,26,0.0,0.0,81,0.00,,,0.00,0,WeatherCatV1.14B232,2013-03-12 07:26:00,
2013-03-12 00:31:00,48.0,42.5,30.16,NNE,26,0.0,0.0,81,0.00,,,0.00,0,WeatherCatV1.14B232,2013-03-12 07:31:00,
2013-03-12 00:36:00,47.9,42.4,30.16,NNE,26,0.0,0.0,81,0.00,,,0.00,0,WeatherCatV1.14B232,2013-03-12 07:36:00,
2013-03-12 00:41:00,47.7,42.2,30.16,NNE,26,0.0,0.0,81,0.00,,,0.00,0,WeatherCatV1.14B232,2013-03-12 07:41:00,
2013-03-12 00:46:00,47.6,42.1,30.16,NNE,26,0.0,0.0,81,0.00,,,0.00,0,WeatherCatV1.14B232,2013-03-12 07:46:00,
2013-03-12 00:51:00,47.4,41.9,30.16,NNE,26,0.0,0.0,81,0.00,,,0.00,0,WeatherCatV1.14B232,2013-03-12 07:51:00,
2013-03-12 00:56:00,47.2,41.7,30.16,NNE,26,0.0,0.0,81,0.00,,,0.00,0,WeatherCatV1.14B232,2013-03-12 07:56:00,
2013-03-12 01:01:00,47.1,41.9,30.16,NNE,26,0.0,0.0,82,0.00,,,0.00,0,WeatherCatV1.14B232,2013-03-12 08:01:00,
2013-03-12 01:06:00,46.9,41.7,30.16,NNE,26,0.0,0.0,82,0.00,,,0.00,0,WeatherCatV1.14B232,2013-03-12 08:06:00,
2013-03-12 01:11:00,46.8,41.6,30.16,NNE,26,0.0,0.0,82,0.00,,,0.00,0,WeatherCatV1.14B232,2013-03-12 08:11:00,
2013-03-12 01:16:00,46.7,41.5,30.16,NNE,26,0.0,0.0,82,0.00,,,0.00,0,WeatherCatV1.14B232,2013-03-12 08:16:00,
2013-03-12 01:21:00,46.5,41.3,30.16,NNE,26,0.0,0.0,82,0.00,,,0.00,0,WeatherCatV1.14B232,2013-03-12 08:21:00,
2013-03-12 01:26:00,46.4,41.2,30.16,NNE,26,0.0,0.0,82,0.00,,,0.00,0,WeatherCatV1.14B232,2013-03-12 08:26:00,
2013-03-12 01:31:00,46.2,41.0,30.16,NNE,26,0.0,0.0,82,0.00,,,0.00,0,WeatherCatV1.14B232,2013-03-12 08:31:00,
2013-03-12 01:36:00,46.1,40.9,30.16,NNE,26,0.0,0.0,82,0.00,,,0.00,0,WeatherCatV1.14B232,2013-03-12 08:36:00,
2013-03-12 01:41:00,46.0,40.8,30.16,NNE,26,0.0,0.0,82,0.00,,,0.00,0,WeatherCatV1.14B232,2013-03-12 08:41:00,
2013-03-12 01:46:00,45.9,40.7,30.16,NNE,26,0.0,0.0,82,0.00,,,0.00,0,WeatherCatV1.14B232,2013-03-12 08:46:00,
2013-03-12 01:51:00,45.7,40.5,30.17,NNE,26,0.0,0.0,82,0.00,,,0.00,0,WeatherCatV1.14B232,2013-03-12 08:51:00,
2013-03-12 01:56:00,45.6,40.4,30.17,NNE,26,0.0,0.0,82,0.00,,,0.00,0,WeatherCatV1.14B232,2013-03-12 08:56:00,
2013-03-12 02:01:00,45.5,40.6,30.17,NNE,26,0.0,0.0,83,0.00,,,0.00,0,WeatherCatV1.14B232,2013-03-12 09:01:00,
2013-03-12 02:06:00,45.4,40.5,30.17,NNE,26,0.0,0.0,83,0.00,,,0.00,0,WeatherCatV1.14B232,2013-03-12 09:06:00,
2013-03-12 02:11:00,45.2,40.3,30.17,NNE,26,0.0,0.0,83,0.00,,,0.00,0,WeatherCatV1.14B232,2013-03-12 09:11:00,
2013-03-12 02:16:00,45.1,40.2,30.17,NNE,26,0.0,0.0,83,0.00,,,0.00,0,WeatherCatV1.14B232,2013-03-12 09:16:00,
2013-03-12 02:21:00,45.0,40.2,30.17,NNE,26,0.0,0.0,83,0.00,,,0.00,0,WeatherCatV1.14B232,2013-03-12 09:21:00,
2013-03-12 02:26:00,45.0,40.2,30.17,NNE,26,0.0,0.0,83,0.00,,,0.00,0,WeatherCatV1.14B232,2013-03-12 09:26:00,
2013-03-12 02:31:00,44.9,40.1,30.17,NNE,26,0.0,0.0,83,0.00,,,0.00,0,WeatherCatV1.14B232,2013-03-12 09:31:00,
2013-03-12 02:36:00,44.8,40.0,30.17,NNE,26,0.0,0.0,83,0.00,,,0.00,0,WeatherCatV1.14B232,2013-03-12 09:36:00,
2013-03-12 02:41:00,44.7,39.9,30.16,NNE,26,0.0,0.0,83,0.00,,,0.00,0,WeatherCatV1.14B232,2013-03-12 09:41:00,
2013-03-12 02:46:00,44.6,39.8,30.16,NNE,26,0.0,0.0,83,0.00,,,0.00,0,WeatherCatV1.14B232,2013-03-12 09:46:00,
2013-03-12 02:51:00,44.5,39.7,30.16,NNE,26,0.0,0.0,83,0.00,,,0.00,0,WeatherCatV1.14B232,2013-03-12 09:51:00,
2013-03-12 02:56:00,44.3,39.5,30.16,NNE,26,0.0,0.0,83,0.00,,,0.00,0,WeatherCatV1.14B232,2013-03-12 09:56:00,
2013-03-12 03:01:00,44.2,39.4,30.16,NNE,26,0.0,0.0,83,0.00,,,0.00,0,WeatherCatV1.14B232,2013-03-12 10:01:00,
2013-03-12 03:06:00,44.1,39.3,30.16,NNE,26,0.0,0.0,83,0.00,,,0.00,0,WeatherCatV1.14B232,2013-03-12 10:06:00,
2013-03-12 03:11:00,43.9,39.1,30.15,NNE,26,0.0,0.0,83,0.00,,,0.00,0,WeatherCatV1.14B232,2013-03-12 10:11:00,
2013-03-12 03:16:00,43.9,39.1,30.15,NNE,26,0.0,0.0,83,0.00,,,0.00,0,WeatherCatV1.14B232,2013-03-12 10:16:00,
2013-03-12 03:21:00,43.8,39.0,30.15,NNE,26,0.0,0.0,83,0.00,,,0.00,0,WeatherCatV1.14B232,2013-03-12 10:21:00,
2013-03-12 03:26:00,43.6,39.1,30.15,NNE,26,0.0,0.0,84,0.00,,,0.00,0,WeatherCatV1.14B232,2013-03-12 10:26:00,
2013-03-12 03:31:00,43.5,39.0,30.15,NNE,26,0.0,0.0,84,0.00,,,0.00,0,WeatherCatV1.14B232,2013-03-12 10:31:00,
2013-03-12 03:36:00,43.4,38.9,30.15,NNE,26,0.0,0.0,84,0.00,,,0.00,0,WeatherCatV1.14B232,2013-03-12 10:36:00,
2013-03-12 03:41:00,43.3,38.8,30.15,NNE,26,0.0,0.0,84,0.00,,,0.00,0,WeatherCatV1.14B232,2013-03-12 10:41:00,
2013-03-12 03:46:00,43.3,38.8,30.15,NNE,26,0.0,0.0,84,0.00,,,0.00,0,WeatherCatV1.14B232,2013-03-12 10:46:00,
2013-03-12 03:51:00,43.2,38.7,30.15,NNE,26,0.0,0.0,84,0.00,,,0.00,0,WeatherCatV1.14B232,2013-03-12 10:51:00,
2013-03-12 03:56:00,43.1,38.6,30.15,NNE,26,0.0,0.0,84,0.00,,,0.00,0,WeatherCatV1.14B232,2013-03-12 10:56:00,
2013-03-12 04:01:00,43.0,38.5,30.15,NNE,26,0.0,0.0,84,0.00,,,0.00,0,WeatherCatV1.14B232,2013-03-12 11:01:00,
2013-03-12 04:06:00,43.0,38.5,30.15,NNE,26,0.0,0.0,84,0.00,,,0.00,0,WeatherCatV1.14B232,2013-03-12 11:06:00,
2013-03-12 04:11:00,42.9,38.4,30.15,NNE,26,0.0,0.0,84,0.00,,,0.00,0,WeatherCatV1.14B232,2013-03-12 11:11:00,
2013-03-12 04:16:00,42.8,38.3,30.15,NNE,26,0.0,0.0,84,0.00,,,0.00,0,WeatherCatV1.14B232,2013-03-12 11:16:00,
2013-03-12 04:21:00,42.7,38.2,30.15,NNE,26,0.0,0.0,84,0.00,,,0.00,0,WeatherCatV1.14B232,2013-03-12 11:21:00,
2013-03-12 04:26:00,42.6,38.1,30.15,NNE,26,0.0,0.0,84,0.00,,,0.00,0,WeatherCatV1.14B232,2013-03-12 11:26:00,
2013-03-12 04:31:00,42.5,38.0,30.15,NNE,26,0.0,0.0,84,0.00,,,0.00,0,WeatherCatV1.14B232,2013-03-12 11:31:00,
2013-03-12 04:36:00,42.5,38.0,30.15,NNE,26,0.0,0.0,84,0.00,,,0.00,0,WeatherCatV1.14B232,2013-03-12 11:36:00,
2013-03-12 04:41:00,42.4,38.2,30.15,NNE,26,0.0,0.0,85,0.00,,,0.00,0,WeatherCatV1.14B232,2013-03-12 11:41:00,
2013-03-12 04:46:00,42.3,37.8,30.15,NNE,26,0.0,0.0,84,0.00,,,0.00,0,WeatherCatV1.14B232,2013-03-12 11:46:00,
2013-03-12 04:51:00,42.3,38.1,30.15,NNE,26,0.0,0.0,85,0.00,,,0.00,0,WeatherCatV1.14B232,2013-03-12 11:51:00,
2013-03-12 04:56:00,42.2,38.0,30.15,NNE,26,0.0,0.0,85,0.00,,,0.00,0,WeatherCatV1.14B232,2013-03-12 11:56:00,
2013-03-12 05:01:00,42.2,38.0,30.15,NNE,26,0.0,0.0,85,0.00,,,0.00,0,WeatherCatV1.14B232,2013-03-12 12:01:00,
2013-03-12 05:06:00,42.1,37.9,30.15,NNE,26,0.0,0.0,85,0.00,,,0.00,0,WeatherCatV1.14B232,2013-03-12 12:06:00,
2013-03-12 05:11:00,42.1,37.9,30.15,NNE,26,0.0,0.0,85,0.00,,,0.00,0,WeatherCatV1.14B232,2013-03-12 12:11:00,
2013-03-12 05:16:00,42.1,37.9,30.15,NNE,26,0.0,0.0,85,0.00,,,0.00,0,WeatherCatV1.14B232,2013-03-12 12:16:00,
2013-03-12 05:21:00,42.2,38.0,30.15,NNE,26,0.0,0.0,85,0.00,,,0.00,0,WeatherCatV1.14B232,2013-03-12 12:21:00,
2013-03-12 05:26:00,42.3,38.1,30.15,NNE,26,0.0,0.0,85,0.00,,,0.00,0,WeatherCatV1.14B232,2013-03-12 12:26:00,
2013-03-12 05:31:00,42.6,38.7,30.15,NNE,26,0.0,0.0,86,0.00,,,0.00,0,WeatherCatV1.14B232,2013-03-12 12:31:00,
2013-03-12 05:36:00,42.8,38.9,30.15,NNE,26,0.0,0.0,86,0.00,,,0.00,0,WeatherCatV1.14B232,2013-03-12 12:36:00,
2013-03-12 05:41:00,43.3,39.7,30.15,NNE,26,0.0,0.0,87,0.00,,,0.00,0,WeatherCatV1.14B232,2013-03-12 12:41:00,
2013-03-12 05:46:00,43.4,39.5,30.15,NNE,26,0.0,0.0,86,0.00,,,0.00,0,WeatherCatV1.14B232,2013-03-12 12:46:00,
2013-03-12 05:51:00,43.6,40.0,30.15,NNE,26,0.0,0.0,87,0.00,,,0.00,0,WeatherCatV1.14B232,2013-03-12 12:51:00,
2013-03-12 05:56:00,43.8,40.2,30.15,NNE,26,0.0,0.0,87,0.00,,,0.00,0,WeatherCatV1.14B232,2013-03-12 12:56:00,
2013-03-12 06:01:00,43.9,40.3,30.15,NNE,26,0.0,0.0,87,0.00,,,0.00,0,WeatherCatV1.14B232,2013-03-12 13:01:00,
2013-03-12 06:06:00,44.1,40.5,30.15,NNE,26,0.0,0.0,87,0.00,,,0.00,0,WeatherCatV1.14B232,2013-03-12 13:06:00,
2013-03-12 06:11:00,44.2,40.6,30.15,NNE,26,0.0,0.0,87,0.00,,,0.00,0,WeatherCatV1.14B232,2013-03-12 13:11:00,
2013-03-12 06:16:00,44.4,40.8,30.14,NNE,26,0.0,0.0,87,0.00,,,0.00,0,WeatherCatV1.14B232,2013-03-12 13:16:00,
2013-03-12 06:21:00,44.7,41.1,30.15,NNE,26,0.0,0.0,87,0.00,,,0.00,0,WeatherCatV1.14B232,2013-03-12 13:21:00,
2013-03-12 06:26:00,45.0,41.4,30.15,NNE,26,0.0,0.0,87,0.00,,,0.00,0,WeatherCatV1.14B232,2013-03-12 13:26:00,
2013-03-12 06:31:00,45.2,41.9,30.15,NNE,26,0.0,0.0,88,0.00,,,0.00,0,WeatherCatV1.14B232,2013-03-12 13:31:00,
2013-03-12 06:36:00,45.4,42.1,30.15,NNE,26,0.0,0.0,88,0.00,,,0.00,0,WeatherCatV1.14B232,2013-03-12 13:36:00,
2013-03-12 06:41:00,45.7,42.4,30.15,NNE,26,0.0,0.0,88,0.00,,,0.00,0,WeatherCatV1.14B232,2013-03-12 13:41:00,
2013-03-12 06:46:00,45.9,42.5,30.15,NNE,26,0.0,0.0,88,0.00,,,0.00,0,WeatherCatV1.14B232,2013-03-12 13:46:00,
2013-03-12 06:51:00,46.4,43.0,30.15,NNE,26,0.0,0.0,88,0.00,,,0.00,0,WeatherCatV1.14B232,2013-03-12 13:51:00,
2013-03-12 06:56:00,46.7,43.3,30.15,NNE,26,0.0,0.0,88,0.00,,,0.00,0,WeatherCatV1.14B232,2013-03-12 13:56:00,
2013-03-12 07:01:00,46.9,43.5,30.15,NNE,26,0.0,0.0,88,0.00,,,0.00,0,WeatherCatV1.14B232,2013-03-12 14:01:00,
2013-03-12 07:06:00,47.2,43.8,30.15,NNE,26,0.0,0.0,88,0.00,,,0.00,0,WeatherCatV1.14B232,2013-03-12 14:06:00,
2013-03-12 07:11:00,47.4,44.0,30.15,NNE,26,0.0,0.0,88,0.00,,,0.00,0,WeatherCatV1.14B232,2013-03-12 14:11:00,
2013-03-12 07:16:00,47.5,45.3,30.15,NNE,26,0.0,0.0,92,0.00,,,0.00,0,WeatherCatV1.14B232,2013-03-12 14:16:00,
2013-03-12 07:21:00,47.7,44.3,30.15,NNE,26,0.0,0.0,88,0.00,,,0.00,0,WeatherCatV1.14B232,2013-03-12 14:21:00,
2013-03-12 07:26:00,47.8,44.4,30.15,NNE,26,0.0,0.0,88,0.00,,,0.00,0,WeatherCatV1.14B232,2013-03-12 14:26:00,
2013-03-12 07:31:00,48.0,44.6,30.15,NNE,26,0.0,0.0,88,0.00,,,0.00,0,WeatherCatV1.14B232,2013-03-12 14:31:00,
2013-03-12 07:36:00,48.1,44.7,30.15,ESE,119,0.0,2.0,88,0.00,,,0.00,0,WeatherCatV1.14B232,2013-03-12 14:36:00,
2013-03-12 07:41:00,48.3,44.9,30.15,ESE,119,0.0,0.0,88,0.00,,,0.00,5,WeatherCatV1.14B232,2013-03-12 14:41:00,
2013-03-12 07:46:00,48.4,45.0,30.16,ESE,119,0.0,0.0,88,0.00,,,0.00,7,WeatherCatV1.14B232,2013-03-12 14:46:00,
2013-03-12 07:51:00,48.5,45.1,30.16,ESE,119,0.0,0.0,88,0.00,,,0.00,9,WeatherCatV1.14B232,2013-03-12 14:51:00,
2013-03-12 07:56:00,48.6,45.2,30.16,ESE,119,0.0,1.0,88,0.00,,,0.00,11,WeatherCatV1.14B232,2013-03-12 14:56:00,
2013-03-12 08:01:00,48.7,45.3,30.16,ESE,119,0.0,0.0,88,0.00,,,0.00,14,WeatherCatV1.14B232,2013-03-12 15:01:00,
2013-03-12 08:06:00,48.8,45.4,30.16,ESE,119,0.0,1.0,88,0.00,,,0.00,16,WeatherCatV1.14B232,2013-03-12 15:06:00,
2013-03-12 08:11:00,48.8,45.4,30.16,ESE,119,0.0,0.0,88,0.00,,,0.00,19,WeatherCatV1.14B232,2013-03-12 15:11:00,
2013-03-12 08:16:00,48.9,46.7,30.17,ESE,119,1.0,1.0,92,0.00,,,0.00,23,WeatherCatV1.14B232,2013-03-12 15:16:00,
2013-03-12 08:21:00,49.0,45.9,30.17,ESE,119,0.0,0.0,89,0.00,,,0.00,28,WeatherCatV1.14B232,2013-03-12 15:21:00,
2013-03-12 08:26:00,49.1,46.0,30.17,ESE,119,0.0,0.0,89,0.00,,,0.00,32,WeatherCatV1.14B232,2013-03-12 15:26:00,
2013-03-12 08:31:00,49.2,46.1,30.17,ESE,119,0.0,1.0,89,0.00,,,0.00,37,WeatherCatV1.14B232,2013-03-12 15:31:00,
2013-03-12 08:36:00,49.2,46.1,30.17,ESE,119,0.0,1.0,89,0.00,,,0.00,42,WeatherCatV1.14B232,2013-03-12 15:36:00,
2013-03-12 08:41:00,49.3,45.9,30.17,ESE,119,0.0,1.0,88,0.00,,,0.00,53,WeatherCatV1.14B232,2013-03-12 15:41:00,
2013-03-12 08:46:00,49.4,46.0,30.18,ESE,119,0.0,0.0,88,0.00,,,0.00,47,WeatherCatV1.14B232,2013-03-12 15:46:00,
2013-03-12 08:51:00,49.5,46.1,30.18,ESE,119,0.0,0.0,88,0.00,,,0.00,53,WeatherCatV1.14B232,2013-03-12 15:51:00,
2013-03-12 08:56:00,49.6,46.5,30.18,ESE,119,0.0,0.0,89,0.00,,,0.00,56,WeatherCatV1.14B232,2013-03-12 15:56:00,
2013-03-12 09:01:00,49.7,46.6,30.18,ESE,119,1.0,2.0,89,0.00,,,0.00,65,WeatherCatV1.14B232,2013-03-12 16:01:00,
2013-03-12 09:06:00,49.8,46.7,30.18,ESE,119,0.0,0.0,89,0.00,,,0.00,72,WeatherCatV1.14B232,2013-03-12 16:06:00,
2013-03-12 09:11:00,49.9,46.8,30.18,ESE,119,0.0,0.0,89,0.00,,,0.00,79,WeatherCatV1.14B232,2013-03-12 16:11:00,
2013-03-12 09:16:00,50.0,46.9,30.18,ESE,119,0.0,0.0,89,0.00,,,0.00,84,WeatherCatV1.14B232,2013-03-12 16:16:00,
2013-03-12 09:21:00,50.1,47.0,30.18,ESE,119,0.0,0.0,89,0.00,,,0.00,102,WeatherCatV1.14B232,2013-03-12 16:21:00,
2013-03-12 09:26:00,50.3,47.2,30.18,ESE,119,0.0,0.0,89,0.00,,,0.00,128,WeatherCatV1.14B232,2013-03-12 16:26:00,
2013-03-12 09:31:00,50.5,47.4,30.18,ESE,119,0.0,2.0,89,0.00,,,0.00,142,WeatherCatV1.14B232,2013-03-12 16:31:00,
2013-03-12 09:36:00,50.7,47.6,30.18,ESE,119,0.0,1.0,89,0.00,,,0.00,188,WeatherCatV1.14B232,2013-03-12 16:36:00,
2013-03-12 09:41:00,51.1,48.0,30.18,ESE,119,1.0,1.0,89,0.00,,,0.00,188,WeatherCatV1.14B232,2013-03-12 16:41:00,
2013-03-12 09:46:00,51.5,48.1,30.18,ESE,119,0.0,2.0,88,0.00,,,0.00,179,WeatherCatV1.14B232,2013-03-12 16:46:00,
2013-03-12 09:51:00,51.8,48.4,30.18,SE,141,3.0,3.0,88,0.00,,,0.00,174,WeatherCatV1.14B232,2013-03-12 16:51:00,
2013-03-12 09:56:00,52.0,48.3,30.18,SE,131,0.0,2.0,87,0.00,,,0.00,193,WeatherCatV1.14B232,2013-03-12 16:56:00,
2013-03-12 10:01:00,52.2,48.1,30.18,SE,131,0.0,1.0,86,0.00,,,0.00,269,WeatherCatV1.14B232,2013-03-12 17:01:00,
2013-03-12 10:06:00,52.7,48.3,30.18,SE,130,0.0,1.0,85,0.00,,,0.00,346,WeatherCatV1.14B232,2013-03-12 17:06:00,
2013-03-12 10:11:00,53.7,49.0,30.18,SE,132,1.0,1.0,84,0.00,,,0.00,480,WeatherCatV1.14B232,2013-03-12 17:11:00,
2013-03-12 10:16:00,54.6,49.2,30.19,SE,132,0.0,0.0,82,0.00,,,0.00,362,WeatherCatV1.14B232,2013-03-12 17:16:00,
2013-03-12 10:21:00,56.0,50.2,30.19,SE,131,0.0,1.0,81,0.00,,,0.00,475,WeatherCatV1.14B232,2013-03-12 17:21:00,
2013-03-12 10:26:00,55.6,48.5,30.19,NNE,23,1.0,3.0,77,0.00,,,0.00,489,WeatherCatV1.14B232,2013-03-12 17:26:00,
2013-03-12 10:31:00,55.4,48.3,30.18,NNE,22,2.0,2.0,77,0.00,,,0.00,494,WeatherCatV1.14B232,2013-03-12 17:31:00,
2013-03-12 10:36:00,57.5,49.3,30.18,NNE,28,0.0,1.0,74,0.00,,,0.00,503,WeatherCatV1.14B232,2013-03-12 17:36:00,
2013-03-12 10:41:00,56.2,47.7,30.18,NNE,26,0.0,3.0,73,0.00,,,0.00,527,WeatherCatV1.14B232,2013-03-12 17:41:00,
2013-03-12 10:46:00,57.1,48.5,30.18,NNE,26,0.0,0.0,73,0.00,,,0.00,533,WeatherCatV1.14B232,2013-03-12 17:46:00,
2013-03-12 10:51:00,57.4,48.4,30.18,NNE,15,0.0,2.0,72,0.00,,,0.00,554,WeatherCatV1.14B232,2013-03-12 17:51:00,
2013-03-12 10:56:00,57.6,49.0,30.18,NNE,15,0.0,1.0,73,0.00,,,0.00,564,WeatherCatV1.14B232,2013-03-12 17:56:00,
2013-03-12 11:01:00,59.3,49.9,30.18,ENE,64,3.0,3.0,71,0.00,,,0.00,577,WeatherCatV1.14B232,2013-03-12 18:01:00,
2013-03-12 11:06:00,59.3,48.7,30.18,North,0,0.0,3.0,68,0.00,,,0.00,585,WeatherCatV1.14B232,2013-03-12 18:06:00,
2013-03-12 11:11:00,58.9,49.1,30.18,North,355,0.0,2.0,70,0.00,,,0.00,598,WeatherCatV1.14B232,2013-03-12 18:11:00,
2013-03-12 11:16:00,60.3,50.1,30.17,NNW,340,1.0,2.0,69,0.00,,,0.00,605,WeatherCatV1.14B232,2013-03-12 18:16:00,
2013-03-12 11:21:00,60.1,49.5,30.17,East,92,1.0,2.0,68,0.00,,,0.00,622,WeatherCatV1.14B232,2013-03-12 18:21:00,
2013-03-12 11:26:00,62.2,51.1,30.17,NE,54,3.0,4.0,67,0.00,,,0.00,635,WeatherCatV1.14B232,2013-03-12 18:26:00,
2013-03-12 11:31:00,63.6,50.3,30.17,ENE,68,0.0,1.0,62,0.00,,,0.00,642,WeatherCatV1.14B232,2013-03-12 18:31:00,
2013-03-12 11:36:00,61.7,50.2,30.17,NNE,19,0.0,1.0,66,0.00,,,0.00,650,WeatherCatV1.14B232,2013-03-12 18:36:00,
2013-03-12 11:41:00,61.1,49.7,30.17,NE,44,3.0,5.0,66,0.00,,,0.00,659,WeatherCatV1.14B232,2013-03-12 18:41:00,
2013-03-12 11:46:00,61.8,49.9,30.17,NNE,30,0.0,1.0,65,0.00,,,0.00,664,WeatherCatV1.14B232,2013-03-12 18:46:00,
2013-03-12 11:51:00,63.6,51.2,30.17,NNE,13,1.0,1.0,64,0.00,,,0.00,677,WeatherCatV1.14B232,2013-03-12 18:51:00,
2013-03-12 11:56:00,64.7,50.9,30.17,ENE,62,1.0,4.0,61,0.00,,,0.00,682,WeatherCatV1.14B232,2013-03-12 18:56:00,
2013-03-12 12:01:00,62.4,49.6,30.17,North,5,0.0,3.0,63,0.00,,,0.00,691,WeatherCatV1.14B232,2013-03-12 19:01:00,
2013-03-12 12:06:00,61.1,49.7,30.17,NNE,13,0.0,4.0,66,0.00,,,0.00,696,WeatherCatV1.14B232,2013-03-12 19:06:00,
2013-03-12 12:11:00,62.4,50.5,30.17,NE,40,3.0,4.0,65,0.00,,,0.00,700,WeatherCatV1.14B232,2013-03-12 19:11:00,
2013-03-12 12:16:00,61.6,48.9,30.17,North,11,2.0,5.0,63,0.00,,,0.00,708,WeatherCatV1.14B232,2013-03-12 19:16:00,
2013-03-12 12:21:00,63.0,51.0,30.16,NE,36,0.0,2.0,65,0.00,,,0.00,717,WeatherCatV1.14B232,2013-03-12 19:21:00,
2013-03-12 12:26:00,63.9,50.6,30.16,NE,42,3.0,4.0,62,0.00,,,0.00,719,WeatherCatV1.14B232,2013-03-12 19:26:00,
2013-03-12 12:31:00,63.9,51.5,30.16,NNE,24,2.0,3.0,64,0.00,,,0.00,722,WeatherCatV1.14B232,2013-03-12 19:31:00,
2013-03-12 12:36:00,63.6,49.9,30.16,North,9,0.0,4.0,61,0.00,,,0.00,728,WeatherCatV1.14B232,2013-03-12 19:36:00,
2013-03-12 12:41:00,62.9,50.1,30.16,North,9,0.0,2.0,63,0.00,,,0.00,731,WeatherCatV1.14B232,2013-03-12 19:41:00,
2013-03-12 12:46:00,65.2,51.4,30.16,WSW,246,0.0,2.0,61,0.00,,,0.00,735,WeatherCatV1.14B232,2013-03-12 19:46:00,
2013-03-12 12:51:00,66.8,51.1,30.16,ENE,65,0.0,4.0,57,0.00,,,0.00,738,WeatherCatV1.14B232,2013-03-12 19:51:00,
2013-03-12 12:56:00,67.2,51.0,30.15,NE,39,2.0,3.0,56,0.00,,,0.00,733,WeatherCatV1.14B232,2013-03-12 19:56:00,
2013-03-12 13:01:00,67.0,51.3,30.15,NE,39,1.0,1.0,57,0.00,,,0.00,740,WeatherCatV1.14B232,2013-03-12 20:01:00,
2013-03-12 13:06:00,65.6,51.8,30.15,North,9,0.0,1.0,61,0.00,,,0.00,742,WeatherCatV1.14B232,2013-03-12 20:06:00,
2013-03-12 13:11:00,68.6,51.8,30.15,North,9,0.0,1.0,55,0.00,,,0.00,744,WeatherCatV1.14B232,2013-03-12 20:11:00,
2013-03-12 13:16:00,68.7,50.9,30.15,East,80,2.0,4.0,53,0.00,,,0.00,745,WeatherCatV1.14B232,2013-03-12 20:16:00,
2013-03-12 13:21:00,68.4,50.1,30.14,ENE,78,0.0,2.0,52,0.00,,,0.00,745,WeatherCatV1.14B232,2013-03-12 20:21:00,
2013-03-12 13:26:00,69.1,51.2,30.14,East,87,2.0,4.0,53,0.00,,,0.00,687,WeatherCatV1.14B232,2013-03-12 20:26:00,
2013-03-12 13:31:00,69.6,51.2,30.14,NE,40,0.0,2.0,52,0.00,,,0.00,738,WeatherCatV1.14B232,2013-03-12 20:31:00,
2013-03-12 13:36:00,69.8,49.8,30.14,ENE,64,0.0,3.0,49,0.00,,,0.00,647,WeatherCatV1.14B232,2013-03-12 20:36:00,
2013-03-12 13:41:00,69.2,49.8,30.14,NNE,13,3.0,3.0,50,0.00,,,0.00,487,WeatherCatV1.14B232,2013-03-12 20:41:00,
2013-03-12 13:46:00,69.7,49.7,30.13,North,5,0.0,2.0,49,0.00,,,0.00,322,WeatherCatV1.14B232,2013-03-12 20:46:00,
2013-03-12 13:51:00,70.4,49.8,30.13,NNE,33,0.0,1.0,48,0.00,,,0.00,457,WeatherCatV1.14B232,2013-03-12 20:51:00,
2013-03-12 13:56:00,70.1,49.5,30.13,North,0,2.0,5.0,48,0.00,,,0.00,552,WeatherCatV1.14B232,2013-03-12 20:56:00,
2013-03-12 14:01:00,70.4,51.9,30.12,North,0,0.0,2.0,52,0.00,,,0.00,406,WeatherCatV1.14B232,2013-03-12 21:01:00,
2013-03-12 14:06:00,70.3,50.8,30.12,North,9,0.0,4.0,50,0.00,,,0.00,503,WeatherCatV1.14B232,2013-03-12 21:06:00,
2013-03-12 14:11:00,69.3,49.3,30.12,North,355,1.0,4.0,49,0.00,,,0.00,155,WeatherCatV1.14B232,2013-03-12 21:11:00,
2013-03-12 14:16:00,69.3,51.4,30.12,NNE,28,0.0,2.0,53,0.00,,,0.00,397,WeatherCatV1.14B232,2013-03-12 21:16:00,
2013-03-12 14:21:00,69.1,50.2,30.12,ENE,63,0.0,4.0,51,0.00,,,0.00,585,WeatherCatV1.14B232,2013-03-12 21:21:00,
2013-03-12 14:26:00,69.6,51.2,30.12,NE,40,2.0,2.0,52,0.00,,,0.00,105,WeatherCatV1.14B232,2013-03-12 21:26:00,
2013-03-12 14:31:00,68.8,49.9,30.11,North,355,0.0,1.0,51,0.00,,,0.00,63,WeatherCatV1.14B232,2013-03-12 21:31:00,
2013-03-12 14:36:00,68.5,48.0,30.11,North,0,2.0,5.0,48,0.00,,,0.00,60,WeatherCatV1.14B232,2013-03-12 21:36:00,
2013-03-12 14:41:00,69.2,49.8,30.11,North,355,0.0,1.0,50,0.00,,,0.00,163,WeatherCatV1.14B232,2013-03-12 21:41:00,
2013-03-12 14:46:00,70.2,50.7,30.11,NE,56,2.0,2.0,50,0.00,,,0.00,341,WeatherCatV1.14B232,2013-03-12 21:46:00,
2013-03-12 14:51:00,69.7,50.2,30.11,NNE,13,2.0,2.0,50,0.00,,,0.00,309,WeatherCatV1.14B232,2013-03-12 21:51:00,
2013-03-12 14:56:00,69.4,49.9,30.10,North,350,2.0,4.0,50,0.00,,,0.00,58,WeatherCatV1.14B232,2013-03-12 21:56:00,
2013-03-12 15:01:00,69.8,50.3,30.11,NNE,20,4.0,4.0,50,0.00,,,0.00,635,WeatherCatV1.14B232,2013-03-12 22:01:00,
2013-03-12 15:06:00,70.1,50.6,30.11,NNE,23,1.0,2.0,50,0.00,,,0.00,642,WeatherCatV1.14B232,2013-03-12 22:06:00,
2013-03-12 15:11:00,70.8,50.7,30.10,NNE,22,0.0,3.0,49,0.00,,,0.00,601,WeatherCatV1.14B232,2013-03-12 22:11:00,
2013-03-12 15:16:00,71.5,50.8,30.10,NE,42,2.0,4.0,48,0.00,,,0.00,599,WeatherCatV1.14B232,2013-03-12 22:16:00,
2013-03-12 15:21:00,71.7,50.9,30.10,NW,308,1.0,2.0,48,0.00,,,0.00,455,WeatherCatV1.14B232,2013-03-12 22:21:00,
2013-03-12 15:26:00,70.6,49.9,30.10,NNE,32,2.0,5.0,48,0.00,,,0.00,533,WeatherCatV1.14B232,2013-03-12 22:26:00,
2013-03-12 15:31:00,69.6,49.6,30.10,NNE,22,0.0,4.0,49,0.00,,,0.00,448,WeatherCatV1.14B232,2013-03-12 22:31:00,
2013-03-12 15:36:00,70.0,49.9,30.10,NNE,22,2.0,4.0,49,0.00,,,0.00,53,WeatherCatV1.14B232,2013-03-12 22:36:00,
2013-03-12 15:41:00,70.4,50.9,30.10,NE,44,0.0,1.0,50,0.00,,,0.00,53,WeatherCatV1.14B232,2013-03-12 22:41:00,
2013-03-12 15:46:00,71.5,49.6,30.10,NE,36,0.0,3.0,46,0.00,,,0.00,534,WeatherCatV1.14B232,2013-03-12 22:46:00,
2013-03-12 15:51:00,72.0,50.7,30.09,NNE,33,3.0,5.0,47,0.00,,,0.00,547,WeatherCatV1.14B232,2013-03-12 22:51:00,
2013-03-12 15:56:00,72.5,50.5,30.09,NNE,22,0.0,1.0,46,0.00,,,0.00,536,WeatherCatV1.14B232,2013-03-12 22:56:00,
2013-03-12 16:01:00,72.4,49.8,30.09,NNE,14,0.0,1.0,45,0.00,,,0.00,524,WeatherCatV1.14B232,2013-03-12 23:01:00,
2013-03-12 16:06:00,72.0,49.5,30.09,NNE,12,0.0,2.0,45,0.00,,,0.00,388,WeatherCatV1.14B232,2013-03-12 23:06:00,
2013-03-12 16:11:00,72.1,49.6,30.09,NNE,30,0.0,1.0,45,0.00,,,0.00,385,WeatherCatV1.14B232,2013-03-12 23:11:00,
2013-03-12 16:16:00,71.5,50.2,30.09,North,355,0.0,1.0,47,0.00,,,0.00,88,WeatherCatV1.14B232,2013-03-12 23:16:00,
2013-03-12 16:21:00,71.9,50.6,30.09,NNE,23,0.0,2.0,47,0.00,,,0.00,53,WeatherCatV1.14B232,2013-03-12 23:21:00,
2013-03-12 16:26:00,71.6,50.3,30.09,NE,42,0.0,2.0,47,0.00,,,0.00,401,WeatherCatV1.14B232,2013-03-12 23:26:00,
2013-03-12 16:31:00,71.1,51.0,30.08,NE,38,2.0,5.0,49,0.00,,,0.00,221,WeatherCatV1.14B232,2013-03-12 23:31:00,
2013-03-12 16:36:00,70.8,51.8,30.08,NE,41,1.0,3.0,51,0.00,,,0.00,323,WeatherCatV1.14B232,2013-03-12 23:36:00,
2013-03-12 16:41:00,70.9,51.9,30.08,North,355,0.0,0.0,51,0.00,,,0.00,51,WeatherCatV1.14B232,2013-03-12 23:41:00,
2013-03-12 16:46:00,71.0,51.4,30.08,NNW,346,0.0,5.0,50,0.00,,,0.00,394,WeatherCatV1.14B232,2013-03-12 23:46:00,
2013-03-12 16:51:00,71.0,51.9,30.09,ENE,59,0.0,2.0,51,0.00,,,0.00,350,WeatherCatV1.14B232,2013-03-12 23:51:00,
2013-03-12 16:56:00,71.0,51.9,30.09,NE,46,2.0,5.0,51,0.00,,,0.00,281,WeatherCatV1.14B232,2013-03-12 23:56:00,
2013-03-12 17:01:00,70.9,52.4,30.09,North,10,1.0,2.0,52,0.00,,,0.00,63,WeatherCatV1.14B232,2013-03-13 00:01:00,
2013-03-12 17:06:00,70.7,52.7,30.09,North,5,3.0,6.0,53,0.00,,,0.00,42,WeatherCatV1.14B232,2013-03-13 00:06:00,
2013-03-12 17:11:00,70.2,52.3,30.09,NNE,31,1.0,4.0,53,0.00,,,0.00,40,WeatherCatV1.14B232,2013-03-13 00:11:00,
2013-03-12 17:16:00,69.7,52.3,30.09,NNE,32,4.0,6.0,54,0.00,,,0.00,39,WeatherCatV1.14B232,2013-03-13 00:16:00,
2013-03-12 17:21:00,69.0,51.7,30.09,NNE,30,1.0,4.0,54,0.00,,,0.00,37,WeatherCatV1.14B232,2013-03-13 00:21:00,
2013-03-12 17:26:00,68.5,51.2,30.09,North,355,1.0,4.0,54,0.00,,,0.00,35,WeatherCatV1.14B232,2013-03-13 00:26:00,
2013-03-12 17:31:00,68.0,50.7,30.09,North,5,0.0,1.0,54,0.00,,,0.00,35,WeatherCatV1.14B232,2013-03-13 00:31:00,
2013-03-12 17:36:00,67.7,50.4,30.09,North,5,1.0,5.0,54,0.00,,,0.00,33,WeatherCatV1.14B232,2013-03-13 00:36:00,
2013-03-12 17:41:00,67.4,50.7,30.09,NNE,32,2.0,2.0,55,0.00,,,0.00,33,WeatherCatV1.14B232,2013-03-13 00:41:00,
2013-03-12 17:46:00,67.0,50.3,30.09,NE,51,0.0,4.0,55,0.00,,,0.00,32,WeatherCatV1.14B232,2013-03-13 00:46:00,
2013-03-12 17:51:00,66.7,50.5,30.09,NE,42,0.0,0.0,56,0.00,,,0.00,30,WeatherCatV1.14B232,2013-03-13 00:51:00,
2013-03-12 17:56:00,66.5,50.3,30.09,NE,40,0.0,1.0,56,0.00,,,0.00,30,WeatherCatV1.14B232,2013-03-13 00:56:00,
2013-03-12 18:01:00,66.3,50.6,30.09,NNE,18,0.0,2.0,57,0.00,,,0.00,28,WeatherCatV1.14B232,2013-03-13 01:01:00,
2013-03-12 18:06:00,66.2,51.0,30.09,NNE,24,0.0,1.0,58,0.00,,,0.00,26,WeatherCatV1.14B232,2013-03-13 01:06:00,
2013-03-12 18:11:00,66.0,50.3,30.09,North,5,1.0,2.0,57,0.00,,,0.00,26,WeatherCatV1.14B232,2013-03-13 01:11:00,
2013-03-12 18:16:00,65.8,50.1,30.09,NE,36,0.0,1.0,57,0.00,,,0.00,25,WeatherCatV1.14B232,2013-03-13 01:16:00,
2013-03-12 18:21:00,65.7,50.0,30.10,NE,36,0.0,3.0,57,0.00,,,0.00,23,WeatherCatV1.14B232,2013-03-13 01:21:00,
2013-03-12 18:26:00,65.5,49.9,30.10,NE,40,0.0,1.0,57,0.00,,,0.00,21,WeatherCatV1.14B232,2013-03-13 01:26:00,
2013-03-12 18:31:00,65.4,50.2,30.10,NE,40,0.0,0.0,58,0.00,,,0.00,21,WeatherCatV1.14B232,2013-03-13 01:31:00,
2013-03-12 18:36:00,65.3,50.1,30.10,NE,40,0.0,2.0,58,0.00,,,0.00,19,WeatherCatV1.14B232,2013-03-13 01:36:00,
2013-03-12 18:41:00,65.3,50.1,30.10,NE,40,0.0,0.0,58,0.00,,,0.00,18,WeatherCatV1.14B232,2013-03-13 01:41:00,
2013-03-12 18:46:00,65.2,50.0,30.10,NE,40,0.0,0.0,58,0.00,,,0.00,16,WeatherCatV1.14B232,2013-03-13 01:46:00,
2013-03-12 18:51:00,65.0,49.9,30.10,NE,40,0.0,0.0,58,0.00,,,0.00,12,WeatherCatV1.14B232,2013-03-13 01:51:00,
2013-03-12 18:56:00,64.9,49.8,30.10,NE,40,0.0,0.0,58,0.00,,,0.00,11,WeatherCatV1.14B232,2013-03-13 01:56:00,
2013-03-12 19:01:00,64.8,50.1,30.10,NE,40,0.0,0.0,59,0.00,,,0.00,7,WeatherCatV1.14B232,2013-03-13 02:01:00,
2013-03-12 19:06:00,64.7,50.0,30.10,NE,40,0.0,1.0,59,0.00,,,0.00,5,WeatherCatV1.14B232,2013-03-13 02:06:00,
2013-03-12 19:11:00,64.5,49.8,30.10,NE,40,0.0,0.0,59,0.00,,,0.00,0,WeatherCatV1.14B232,2013-03-13 02:11:00,
2013-03-12 19:16:00,64.3,49.7,30.10,NE,40,0.0,0.0,59,0.00,,,0.00,0,WeatherCatV1.14B232,2013-03-13 02:16:00,
2013-03-12 19:21:00,64.1,49.9,30.11,NE,40,0.0,0.0,60,0.00,,,0.00,0,WeatherCatV1.14B232,2013-03-13 02:21:00,
2013-03-12 19:26:00,63.8,49.6,30.11,NE,40,0.0,0.0,60,0.00,,,0.00,0,WeatherCatV1.14B232,2013-03-13 02:26:00,
2013-03-12 19:31:00,63.5,49.8,30.11,NE,40,0.0,0.0,61,0.00,,,0.00,0,WeatherCatV1.14B232,2013-03-13 02:31:00,
2013-03-12 19:36:00,63.2,49.5,30.11,NE,40,0.0,0.0,61,0.00,,,0.00,0,WeatherCatV1.14B232,2013-03-13 02:36:00,
2013-03-12 19:41:00,63.0,49.3,30.11,NE,40,0.0,0.0,61,0.00,,,0.00,0,WeatherCatV1.14B232,2013-03-13 02:41:00,
2013-03-12 19:46:00,62.8,49.6,30.11,NE,40,0.0,0.0,62,0.00,,,0.00,0,WeatherCatV1.14B232,2013-03-13 02:46:00,
2013-03-12 19:51:00,62.5,49.3,30.11,NE,40,0.0,0.0,62,0.00,,,0.00,0,WeatherCatV1.14B232,2013-03-13 02:51:00,
2013-03-12 19:56:00,62.2,49.0,30.11,NE,40,0.0,0.0,62,0.00,,,0.00,0,WeatherCatV1.14B232,2013-03-13 02:56:00,
2013-03-12 20:01:00,61.8,49.1,30.12,NE,40,0.0,0.0,63,0.00,,,0.00,0,WeatherCatV1.14B232,2013-03-13 03:01:00,
2013-03-12 20:06:00,61.5,48.8,30.12,NE,40,0.0,0.0,63,0.00,,,0.00,0,WeatherCatV1.14B232,2013-03-13 03:06:00,
2013-03-12 20:11:00,61.0,48.7,30.12,NE,40,0.0,0.0,64,0.00,,,0.00,0,WeatherCatV1.14B232,2013-03-13 03:11:00,
2013-03-12 20:16:00,60.7,48.4,30.12,NE,40,0.0,0.0,64,0.00,,,0.00,0,WeatherCatV1.14B232,2013-03-13 03:16:00,
2013-03-12 20:21:00,60.3,48.5,30.12,NE,40,0.0,0.0,65,0.00,,,0.00,0,WeatherCatV1.14B232,2013-03-13 03:21:00,
2013-03-12 20:26:00,59.9,48.5,30.12,NE,40,0.0,0.0,66,0.00,,,0.00,0,WeatherCatV1.14B232,2013-03-13 03:26:00,
2013-03-12 20:31:00,59.6,48.2,30.12,NE,40,0.0,0.0,66,0.00,,,0.00,0,WeatherCatV1.14B232,2013-03-13 03:31:00,
2013-03-12 20:36:00,59.2,47.8,30.13,NE,40,0.0,0.0,66,0.00,,,0.00,0,WeatherCatV1.14B232,2013-03-13 03:36:00,
2013-03-12 20:41:00,59.0,47.7,30.13,NE,40,0.0,0.0,66,0.00,,,0.00,0,WeatherCatV1.14B232,2013-03-13 03:41:00,
2013-03-12 20:46:00,59.0,48.1,30.13,NE,40,0.0,0.0,67,0.00,,,0.00,0,WeatherCatV1.14B232,2013-03-13 03:46:00,
2013-03-12 20:51:00,58.5,47.6,30.13,NE,40,0.0,0.0,67,0.00,,,0.00,0,WeatherCatV1.14B232,2013-03-13 03:51:00,
2013-03-12 20:56:00,58.3,47.4,30.13,NE,40,0.0,2.0,67,0.00,,,0.00,0,WeatherCatV1.14B232,2013-03-13 03:56:00,
2013-03-12 21:00:00,58.0,47.5,30.13,NE,40,0.0,0.0,68,0.00,,,0.00,0,WeatherCatV1.14B232,2013-03-13 04:00:00,
2013-03-12 21:01:00,58.0,47.5,30.13,NE,40,0.0,0.0,68,0.00,,,0.00,0,WeatherCatV1.14B232,2013-03-13 04:01:00,
2013-03-12 21:02:00,57.9,47.4,30.13,NE,40,0.0,0.0,68,0.00,,,0.00,0,WeatherCatV1.14B232,2013-03-13 04:02:00,
2013-03-12 21:06:00,57.7,47.2,30.14,NE,40,0.0,0.0,68,0.00,,,0.00,0,WeatherCatV1.14B232,2013-03-13 04:06:00,
2013-03-12 21:11:00,57.4,47.3,30.14,NE,40,0.0,0.0,69,0.00,,,0.00,0,WeatherCatV1.14B232,2013-03-13 04:11:00,
2013-03-12 21:16:00,57.2,47.1,30.14,NE,40,0.0,0.0,69,0.00,,,0.00,0,WeatherCatV1.14B232,2013-03-13 04:16:00,
2013-03-12 21:21:00,57.0,47.3,30.14,NE,40,0.0,0.0,70,0.00,,,0.00,0,WeatherCatV1.14B232,2013-03-13 04:21:00,
2013-03-12 21:26:00,56.7,47.0,30.14,NE,40,0.0,0.0,70,0.00,,,0.00,0,WeatherCatV1.14B232,2013-03-13 04:26:00,
2013-03-12 21:31:00,56.5,47.2,30.14,NE,40,0.0,0.0,71,0.00,,,0.00,0,WeatherCatV1.14B232,2013-03-13 04:31:00,
2013-03-12 21:36:00,56.3,47.0,30.14,NE,40,0.0,0.0,71,0.00,,,0.00,0,WeatherCatV1.14B232,2013-03-13 04:36:00,
2013-03-12 21:41:00,56.0,46.7,30.14,NE,40,0.0,0.0,71,0.00,,,0.00,0,WeatherCatV1.14B232,2013-03-13 04:41:00,
2013-03-12 21:46:00,55.7,46.8,30.14,NE,40,0.0,0.0,72,0.00,,,0.00,0,WeatherCatV1.14B232,2013-03-13 04:46:00,
2013-03-12 21:51:00,55.5,46.6,30.14,NE,40,0.0,0.0,72,0.00,,,0.00,0,WeatherCatV1.14B232,2013-03-13 04:51:00,
2013-03-12 21:56:00,55.2,46.3,30.14,NE,40,0.0,0.0,72,0.00,,,0.00,0,WeatherCatV1.14B232,2013-03-13 04:56:00,
2013-03-12 22:01:00,55.0,46.5,30.14,NE,40,0.0,0.0,73,0.00,,,0.00,0,WeatherCatV1.14B232,2013-03-13 05:01:00,
2013-03-12 22:06:00,54.7,46.2,30.15,NE,40,0.0,0.0,73,0.00,,,0.00,0,WeatherCatV1.14B232,2013-03-13 05:06:00,
2013-03-12 22:11:00,54.4,45.9,30.15,NE,40,0.0,0.0,73,0.00,,,0.00,0,WeatherCatV1.14B232,2013-03-13 05:11:00,
2013-03-12 22:16:00,54.2,46.1,30.15,NE,40,0.0,0.0,74,0.00,,,0.00,0,WeatherCatV1.14B232,2013-03-13 05:16:00,
2013-03-12 22:21:00,53.9,45.8,30.15,NE,40,0.0,0.0,74,0.00,,,0.00,0,WeatherCatV1.14B232,2013-03-13 05:21:00,
2013-03-12 22:26:00,53.7,46.0,30.15,NE,40,0.0,0.0,75,0.00,,,0.00,0,WeatherCatV1.14B232,2013-03-13 05:26:00,
2013-03-12 22:31:00,53.4,46.0,30.15,NE,40,0.0,0.0,76,0.00,,,0.00,0,WeatherCatV1.14B232,2013-03-13 05:31:00,
2013-03-12 22:36:00,53.2,45.8,30.15,NE,40,0.0,0.0,76,0.00,,,0.00,0,WeatherCatV1.14B232,2013-03-13 05:36:00,
2013-03-12 22:41:00,53.0,45.6,30.15,NE,40,0.0,0.0,76,0.00,,,0.00,0,WeatherCatV1.14B232,2013-03-13 05:41:00,
2013-03-12 22:46:00,52.8,45.8,30.15,NE,40,0.0,0.0,77,0.00,,,0.00,0,WeatherCatV1.14B232,2013-03-13 05:46:00,
2013-03-12 22:51:00,52.6,45.9,30.15,NE,40,0.0,0.0,78,0.00,,,0.00,0,WeatherCatV1.14B232,2013-03-13 05:51:00,
2013-03-12 22:56:00,52.4,45.7,30.15,NE,40,0.0,0.0,78,0.00,,,0.00,0,WeatherCatV1.14B232,2013-03-13 05:56:00,
2013-03-12 23:01:00,52.2,45.5,30.15,NE,40,0.0,0.0,78,0.00,,,0.00,0,WeatherCatV1.14B232,2013-03-13 06:01:00,
2013-03-12 23:06:00,52.0,45.7,30.15,NE,40,0.0,0.0,79,0.00,,,0.00,0,WeatherCatV1.14B232,2013-03-13 06:06:00,
2013-03-12 23:11:00,51.8,45.5,30.15,NE,40,0.0,0.0,79,0.00,,,0.00,0,WeatherCatV1.14B232,2013-03-13 06:11:00,
2013-03-12 23:16:00,51.7,45.4,30.15,NE,40,0.0,0.0,79,0.00,,,0.00,0,WeatherCatV1.14B232,2013-03-13 06:16:00,
2013-03-12 23:21:00,51.5,45.2,30.15,NE,40,0.0,0.0,79,0.00,,,0.00,0,WeatherCatV1.14B232,2013-03-13 06:21:00,
2013-03-12 23:26:00,51.4,45.4,30.15,NE,40,0.0,0.0,80,0.00,,,0.00,0,WeatherCatV1.14B232,2013-03-13 06:26:00,
2013-03-12 23:31:00,51.2,45.2,30.15,NE,40,0.0,0.0,80,0.00,,,0.00,0,WeatherCatV1.14B232,2013-03-13 06:31:00,
2013-03-12 23:36:00,51.0,45.0,30.15,NE,40,0.0,0.0,80,0.00,,,0.00,0,WeatherCatV1.14B232,2013-03-13 06:36:00,
2013-03-12 23:41:00,50.9,45.0,30.15,NE,40,0.0,0.0,80,0.00,,,0.00,0,WeatherCatV1.14B232,2013-03-13 06:41:00,
2013-03-12 23:46:00,50.8,44.9,30.15,NE,40,0.0,0.0,80,0.00,,,0.00,0,WeatherCatV1.14B232,2013-03-13 06:46:00,
2013-03-12 23:51:00,50.6,44.7,30.15,NE,40,0.0,0.0,80,0.00,,,0.00,0,WeatherCatV1.14B232,2013-03-13 06:51:00,
2013-03-12 23:56:00,50.5,44.6,30.15,NE,40,0.0,0.0,80,0.00,,,0.00,0,WeatherCatV1.14B232,2013-03-13 06:56:00,